Tracking 19846 objects as of 19-Sep-2019
HD Live streaming from Space Station
objects crossing your sky now

DMSP 5D-2 F11 DEB

Track DMSP 5D-2 F11 DEB now!
10-day predictions


NORAD ID: 28327
Int'l Code: 1991-082AQ
Perigee: 789.5 km
Apogee: 831.3 km
Inclination: 98.8 °
Period: 100.9 minutes
Semi major axis: 7181 km
RCS: 0.0132 m2 (small)
Launch date: November 28, 1991
Source: United States (US)
Launch site: AIR FORCE WESTERN TEST RANGE (AFWTR)

Note: This is SATELLITE DEBRIS
aabbcc
Your satellite tracking list
Your tracking list is empty




NASA's NSSDC Master Catalog

Two Line Element Set (TLE):
1 28327U 91082AQ  19261.91314049  .00000624  00000-0  27617-3 0  9990
2 28327  98.8438 289.8674 0029054  18.8214 101.6040 14.26559308796245
Source of the keplerian elements: AFSPC